Time,TemperatureF,DewpointF,PressureIn,WindDirection,WindDirectionDegrees,WindSpeedMPH,WindSpeedGustMPH,Humidity,HourlyPrecipIn,Conditions,Clouds,dailyrainin,SoftwareType,DateUTC
2013-05-02 10:54:00,80.1,32.7,30.14,North,-999,-999.0,-999.0,18,-99.99,,,0.00,meteohub,2013-05-02 17:54:00,
2013-05-02 10:55:00,80.1,34.2,30.13,North,-999,-999.0,-999.0,19,-99.99,,,0.00,meteohub,2013-05-02 17:55:00,
2013-05-02 10:56:00,80.2,34.2,30.14,North,-999,-999.0,-999.0,19,-99.99,,,0.00,meteohub,2013-05-02 17:56:00,
2013-05-02 10:58:00,80.4,33.1,30.14,North,-999,-999.0,-999.0,18,-99.99,,,0.00,meteohub,2013-05-02 17:58:00,
2013-05-02 11:03:00,81.0,38.5,30.14,ENE,64,0.0,-999.0,22,0.00,,,0.00,meteohub,2013-05-02 18:03:00,
2013-05-02 11:08:00,81.0,37.4,30.14,NE,48,4.0,7.0,21,0.00,,,0.00,meteohub,2013-05-02 18:08:00,
2013-05-02 11:13:00,81.0,38.5,30.14,NNE,14,7.0,11.0,22,0.00,,,0.00,meteohub,2013-05-02 18:13:00,
2013-05-02 11:18:00,81.0,36.1,30.13,ESE,102,0.0,11.0,20,0.00,,,0.00,meteohub,2013-05-02 18:18:00,
2013-05-02 11:23:00,81.5,36.5,30.13,ENE,58,3.0,11.0,20,0.00,,,0.00,meteohub,2013-05-02 18:23:00,
2013-05-02 11:28:00,81.9,36.9,30.13,ENE,78,4.0,11.0,20,0.00,,,0.00,meteohub,2013-05-02 18:28:00,
2013-05-02 11:33:00,82.0,37.0,30.14,SE,143,3.0,11.0,20,0.00,,,0.00,meteohub,2013-05-02 18:33:00,
2013-05-02 11:38:00,82.0,35.8,30.14,NNE,31,7.0,11.0,19,0.00,,,0.00,meteohub,2013-05-02 18:38:00,
2013-05-02 11:43:00,82.0,35.8,30.13,ENE,69,1.0,11.0,19,0.00,,,0.00,meteohub,2013-05-02 18:43:00,
2013-05-02 11:48:00,82.4,34.7,30.13,ENE,64,5.0,11.0,18,0.00,,,0.00,meteohub,2013-05-02 18:48:00,
2013-05-02 11:53:00,82.6,34.7,30.13,NNE,31,7.0,11.0,18,0.00,,,0.00,meteohub,2013-05-02 18:53:00,
2013-05-02 11:58:00,82.6,33.4,30.13,ESE,117,9.0,11.0,17,0.00,,,0.00,meteohub,2013-05-02 18:58:00,
2013-05-02 12:03:00,82.2,34.5,30.13,ENE,64,7.0,10.0,18,0.00,,,0.00,meteohub,2013-05-02 19:03:00,
2013-05-02 12:08:00,82.6,33.4,30.13,NE,37,6.0,11.0,17,0.00,,,0.00,meteohub,2013-05-02 19:08:00,
2013-05-02 12:13:00,82.8,33.4,30.13,NE,49,5.0,11.0,17,0.00,,,0.00,meteohub,2013-05-02 19:13:00,
2013-05-02 12:18:00,83.1,33.8,30.13,NNE,32,9.0,11.0,17,0.00,,,0.00,meteohub,2013-05-02 19:18:00,
2013-05-02 12:23:00,83.1,32.4,30.12,NE,55,4.0,11.0,16,0.00,,,0.00,meteohub,2013-05-02 19:23:00,
2013-05-02 12:29:00,83.8,32.9,30.12,ENE,69,4.0,11.0,16,0.00,,,0.00,meteohub,2013-05-02 19:29:00,
2013-05-02 12:34:00,84.4,33.3,30.12,NE,52,7.0,11.0,16,0.00,,,0.00,meteohub,2013-05-02 19:34:00,
2013-05-02 12:39:00,84.4,33.3,30.12,NNE,18,7.0,11.0,16,0.00,,,0.00,meteohub,2013-05-02 19:39:00,
2013-05-02 12:44:00,84.4,33.3,30.12,ENE,73,4.0,10.0,16,0.00,,,0.00,meteohub,2013-05-02 19:44:00,
2013-05-02 12:49:00,84.6,33.4,30.12,NE,52,3.0,10.0,16,0.00,,,0.00,meteohub,2013-05-02 19:49:00,
2013-05-02 12:54:00,84.9,33.8,30.12,NE,54,5.0,10.0,16,0.00,,,0.00,meteohub,2013-05-02 19:54:00,
2013-05-02 12:59:00,85.3,32.4,30.12,ENE,60,5.0,10.0,15,0.00,,,0.00,meteohub,2013-05-02 19:59:00,
2013-05-02 13:04:00,85.3,32.4,30.12,NE,52,7.0,10.0,15,0.00,,,0.00,meteohub,2013-05-02 20:04:00,
2013-05-02 13:09:00,84.9,32.2,30.12,NE,36,3.0,10.0,15,0.00,,,0.00,meteohub,2013-05-02 20:09:00,
2013-05-02 13:14:00,84.7,30.2,30.12,ENE,66,3.0,10.0,14,0.00,,,0.00,meteohub,2013-05-02 20:14:00,
2013-05-02 13:19:00,85.3,30.7,30.12,ENE,59,3.0,10.0,14,0.00,,,0.00,meteohub,2013-05-02 20:19:00,
2013-05-02 13:24:00,85.6,29.1,30.12,East,85,3.0,10.0,13,0.00,,,0.00,meteohub,2013-05-02 20:24:00,
2013-05-02 13:29:00,86.4,29.7,30.12,NE,45,2.0,10.0,13,0.00,,,0.00,meteohub,2013-05-02 20:29:00,
2013-05-02 13:34:00,86.5,27.9,30.12,ENE,66,5.0,10.0,12,0.00,,,0.00,meteohub,2013-05-02 20:34:00,
2013-05-02 13:39:00,87.1,28.4,30.12,East,83,3.0,10.0,12,0.00,,,0.00,meteohub,2013-05-02 20:39:00,
2013-05-02 13:44:00,87.1,30.2,30.12,ENE,62,5.0,11.0,13,0.00,,,0.00,meteohub,2013-05-02 20:44:00,
2013-05-02 13:49:00,87.3,30.4,30.12,ESE,108,0.0,11.0,13,0.00,,,0.00,meteohub,2013-05-02 20:49:00,
2013-05-02 13:54:00,87.4,28.6,30.12,NE,45,3.0,11.0,12,0.00,,,0.00,meteohub,2013-05-02 20:54:00,
2013-05-02 13:59:00,87.4,28.6,30.12,ENE,57,1.0,10.0,12,0.00,,,0.00,meteohub,2013-05-02 20:59:00,
2013-05-02 14:04:00,87.8,28.9,30.11,NNW,342,1.0,10.0,12,0.00,,,0.00,meteohub,2013-05-02 21:04:00,
2013-05-02 14:09:00,88.2,40.6,30.12,WSW,256,6.0,8.0,19,0.00,,,0.00,meteohub,2013-05-02 21:09:00,
2013-05-02 14:14:00,85.1,44.2,30.12,SW,231,1.0,8.0,24,0.00,,,0.00,meteohub,2013-05-02 21:14:00,
2013-05-02 14:19:00,81.1,44.1,30.12,West,262,3.0,13.0,27,0.00,,,0.00,meteohub,2013-05-02 21:19:00,
2013-05-02 14:24:00,79.2,43.2,30.12,WSW,239,4.0,13.0,28,0.00,,,0.00,meteohub,2013-05-02 21:24:00,
2013-05-02 14:30:00,77.7,43.9,30.12,WSW,256,7.0,11.0,30,0.00,,,0.00,meteohub,2013-05-02 21:30:00,
2013-05-02 14:35:00,76.6,43.7,30.12,WSW,252,4.0,13.0,31,0.00,,,0.00,meteohub,2013-05-02 21:35:00,
2013-05-02 14:40:00,76.5,44.4,30.12,SSW,212,3.0,13.0,32,0.00,,,0.00,meteohub,2013-05-02 21:40:00,
2013-05-02 14:45:00,76.6,43.7,30.12,WSW,254,4.0,13.0,31,0.00,,,0.00,meteohub,2013-05-02 21:45:00,
2013-05-02 14:50:00,76.3,44.2,30.12,West,268,10.0,12.0,32,0.00,,,0.00,meteohub,2013-05-02 21:50:00,
2013-05-02 14:55:00,75.9,44.8,30.12,West,268,3.0,12.0,33,0.00,,,0.00,meteohub,2013-05-02 21:55:00,
2013-05-02 15:00:00,75.4,45.9,30.11,WSW,242,2.0,12.0,35,0.00,,,0.00,meteohub,2013-05-02 22:00:00,
2013-05-02 15:05:00,74.7,45.9,30.12,South,181,7.0,13.0,36,0.00,,,0.00,meteohub,2013-05-02 22:05:00,
2013-05-02 15:10:00,74.7,45.9,30.11,WSW,245,2.0,13.0,36,0.00,,,0.00,meteohub,2013-05-02 22:10:00,
2013-05-02 15:15:00,75.7,45.3,30.11,West,274,2.0,13.0,34,0.00,,,0.00,meteohub,2013-05-02 22:15:00,
2013-05-02 15:20:00,75.6,45.1,30.11,SW,226,5.0,11.0,34,0.00,,,0.00,meteohub,2013-05-02 22:20:00,
2013-05-02 15:25:00,75.0,44.8,30.11,SW,232,4.0,11.0,34,0.00,,,0.00,meteohub,2013-05-02 22:25:00,
2013-05-02 15:30:00,74.8,43.9,30.11,WSW,239,3.0,11.0,33,0.00,,,0.00,meteohub,2013-05-02 22:30:00,
2013-05-02 15:35:00,75.4,44.2,30.11,WSW,249,3.0,11.0,33,0.00,,,0.00,meteohub,2013-05-02 22:35:00,
2013-05-02 15:40:00,75.4,43.5,30.11,SSW,212,3.0,11.0,32,0.00,,,0.00,meteohub,2013-05-02 22:40:00,
2013-05-02 15:45:00,75.6,44.4,30.11,SW,236,4.0,10.0,33,0.00,,,0.00,meteohub,2013-05-02 22:45:00,
2013-05-02 15:50:00,75.2,44.1,30.11,WSW,245,4.0,11.0,33,0.00,,,0.00,meteohub,2013-05-02 22:50:00,
2013-05-02 15:56:00,74.1,43.2,30.11,SW,225,3.0,13.0,33,0.00,,,0.00,meteohub,2013-05-02 22:56:00,
2013-05-02 16:01:00,74.1,43.2,30.10,WSW,256,2.0,13.0,33,0.00,,,0.00,meteohub,2013-05-02 23:01:00,
2013-05-02 16:06:00,74.1,43.2,30.10,SW,227,4.0,13.0,33,0.00,,,0.00,meteohub,2013-05-02 23:06:00,
2013-05-02 16:11:00,74.8,43.0,30.10,WSW,241,7.0,12.0,32,0.00,,,0.00,meteohub,2013-05-02 23:11:00,
2013-05-02 16:16:00,75.2,44.1,30.10,WSW,238,5.0,12.0,33,0.00,,,0.00,meteohub,2013-05-02 23:16:00,
2013-05-02 16:21:00,74.7,42.1,30.10,SW,235,7.0,11.0,31,0.00,,,0.00,meteohub,2013-05-02 23:21:00,
2013-05-02 16:26:00,73.9,43.0,30.10,WSW,245,8.0,12.0,33,0.00,,,0.00,meteohub,2013-05-02 23:26:00,
2013-05-02 16:31:00,73.6,43.5,30.10,SW,220,6.0,12.0,34,0.00,,,0.00,meteohub,2013-05-02 23:31:00,
2013-05-02 16:36:00,73.9,43.9,30.10,SW,233,10.0,12.0,34,0.00,,,0.00,meteohub,2013-05-02 23:36:00,
2013-05-02 16:41:00,73.9,43.0,30.10,WSW,241,2.0,12.0,33,0.00,,,0.00,meteohub,2013-05-02 23:41:00,
2013-05-02 16:46:00,74.1,43.9,30.10,WSW,253,4.0,11.0,34,0.00,,,0.00,meteohub,2013-05-02 23:46:00,
2013-05-02 16:51:00,73.9,44.6,30.10,WSW,241,9.0,11.0,35,0.00,,,0.00,meteohub,2013-05-02 23:51:00,
2013-05-02 16:56:00,73.9,44.6,30.10,WSW,239,8.0,11.0,35,0.00,,,0.00,meteohub,2013-05-02 23:56:00,
2013-05-02 17:01:00,73.4,44.1,30.10,WSW,238,5.0,11.0,35,0.00,,,0.00,meteohub,2013-05-03 00:01:00,
2013-05-02 17:06:00,73.8,44.4,30.10,SW,232,5.0,10.0,35,0.00,,,0.00,meteohub,2013-05-03 00:06:00,
2013-05-02 17:11:00,74.1,43.9,30.10,SW,229,8.0,11.0,34,0.00,,,0.00,meteohub,2013-05-03 00:11:00,
2013-05-02 17:16:00,74.1,43.9,30.10,West,272,8.0,11.0,34,0.00,,,0.00,meteohub,2013-05-03 00:16:00,
2013-05-02 17:21:00,73.4,43.3,30.09,WSW,241,8.0,11.0,34,0.00,,,0.00,meteohub,2013-05-03 00:21:00,
2013-05-02 17:26:00,72.9,43.5,30.09,WSW,251,9.0,11.0,35,0.00,,,0.00,meteohub,2013-05-03 00:26:00,
2013-05-02 17:31:00,72.5,44.1,30.09,WSW,256,6.0,11.0,36,0.00,,,0.00,meteohub,2013-05-03 00:31:00,
2013-05-02 17:36:00,72.0,43.5,30.09,SW,233,7.0,14.0,36,0.00,,,0.00,meteohub,2013-05-03 00:36:00,
2013-05-02 17:41:00,72.0,43.5,30.09,SW,235,9.0,14.0,36,0.00,,,0.00,meteohub,2013-05-03 00:41:00,
2013-05-02 17:46:00,71.1,42.8,30.09,WSW,238,7.0,14.0,36,0.00,,,0.00,meteohub,2013-05-03 00:46:00,
2013-05-02 17:51:00,70.7,43.2,30.09,WSW,240,12.0,12.0,37,0.00,,,0.00,meteohub,2013-05-03 00:51:00,
2013-05-02 17:56:00,70.3,42.8,30.09,WSW,239,8.0,12.0,37,0.00,,,0.00,meteohub,2013-05-03 00:56:00,
2013-05-02 18:01:00,70.2,44.8,30.09,SW,231,4.0,12.0,40,0.00,,,0.00,meteohub,2013-05-03 01:01:00,
2013-05-02 18:06:00,70.5,43.7,30.09,WSW,255,5.0,12.0,38,0.00,,,0.00,meteohub,2013-05-03 01:06:00,
2013-05-02 18:11:00,70.2,44.8,30.09,WSW,251,8.0,11.0,40,0.00,,,0.00,meteohub,2013-05-03 01:11:00,
2013-05-02 18:16:00,70.3,45.5,30.09,WSW,258,3.0,11.0,41,0.00,,,0.00,meteohub,2013-05-03 01:16:00,
2013-05-02 18:21:00,70.5,46.9,30.09,WSW,250,9.0,11.0,43,0.00,,,0.00,meteohub,2013-05-03 01:21:00,
2013-05-02 18:26:00,70.3,45.5,30.09,WSW,239,9.0,9.0,41,0.00,,,0.00,meteohub,2013-05-03 01:26:00,
2013-05-02 18:31:00,70.0,45.9,30.09,SW,224,4.0,11.0,42,0.00,,,0.00,meteohub,2013-05-03 01:31:00,
2013-05-02 18:36:00,69.6,45.0,30.08,WSW,248,7.0,11.0,41,0.00,,,0.00,meteohub,2013-05-03 01:36:00,
2013-05-02 18:41:00,70.0,44.6,30.09,West,260,8.0,11.0,40,0.00,,,0.00,meteohub,2013-05-03 01:41:00,
2013-05-02 18:46:00,69.6,45.5,30.08,WSW,256,6.0,11.0,42,0.00,,,0.00,meteohub,2013-05-03 01:46:00,
2013-05-02 18:51:00,69.4,44.8,30.08,WSW,245,5.0,11.0,41,0.00,,,0.00,meteohub,2013-05-03 01:51:00,
2013-05-02 18:57:00,69.6,45.5,30.08,SW,234,8.0,11.0,42,0.00,,,0.00,meteohub,2013-05-03 01:57:00,
2013-05-02 19:02:00,69.3,45.9,30.08,WSW,258,3.0,9.0,43,0.00,,,0.00,meteohub,2013-05-03 02:02:00,
2013-05-02 19:07:00,68.7,45.3,30.08,WSW,252,3.0,8.0,43,0.00,,,0.00,meteohub,2013-05-03 02:07:00,
2013-05-02 19:12:00,68.4,47.3,30.08,WSW,241,7.0,9.0,47,0.00,,,0.00,meteohub,2013-05-03 02:12:00,
2013-05-02 19:17:00,67.6,46.0,30.08,WSW,254,3.0,10.0,46,0.00,,,0.00,meteohub,2013-05-03 02:17:00,
2013-05-02 19:22:00,67.5,46.6,30.08,West,261,3.0,10.0,47,0.00,,,0.00,meteohub,2013-05-03 02:22:00,
2013-05-02 19:27:00,66.9,46.0,30.08,SW,229,3.0,10.0,47,0.00,,,0.00,meteohub,2013-05-03 02:27:00,
2013-05-02 19:32:00,66.6,45.7,30.08,WSW,242,3.0,9.0,47,0.00,,,0.00,meteohub,2013-05-03 02:32:00,
2013-05-02 19:37:00,66.4,45.5,30.08,WSW,243,4.0,9.0,47,0.00,,,0.00,meteohub,2013-05-03 02:37:00,
2013-05-02 19:42:00,66.4,45.0,30.08,WSW,243,3.0,9.0,46,0.00,,,0.00,meteohub,2013-05-03 02:42:00,
2013-05-02 19:47:00,66.4,45.0,30.08,SSW,195,5.0,8.0,46,0.00,,,0.00,meteohub,2013-05-03 02:47:00,
2013-05-02 19:52:00,66.0,44.6,30.08,WSW,237,4.0,8.0,46,0.00,,,0.00,meteohub,2013-05-03 02:52:00,
2013-05-02 19:57:00,66.0,44.1,30.08,SW,231,3.0,8.0,45,0.00,,,0.00,meteohub,2013-05-03 02:57:00,
2013-05-02 20:02:00,66.0,43.5,30.08,WSW,256,2.0,8.0,44,0.00,,,0.00,meteohub,2013-05-03 03:02:00,
2013-05-02 20:07:00,65.8,43.3,30.08,West,259,3.0,9.0,44,0.00,,,0.00,meteohub,2013-05-03 03:07:00,
2013-05-02 20:12:00,65.7,43.2,30.08,WSW,240,5.0,9.0,44,0.00,,,0.00,meteohub,2013-05-03 03:12:00,
2013-05-02 20:17:00,65.7,43.2,30.08,SW,229,5.0,10.0,44,0.00,,,0.00,meteohub,2013-05-03 03:17:00,
2013-05-02 20:22:00,65.5,43.0,30.08,SW,230,5.0,10.0,44,0.00,,,0.00,meteohub,2013-05-03 03:22:00,
2013-05-02 20:27:00,65.3,42.8,30.08,WSW,244,2.0,10.0,44,0.00,,,0.00,meteohub,2013-05-03 03:27:00,
2013-05-02 20:32:00,65.3,42.8,30.08,WSW,239,4.0,8.0,44,0.00,,,0.00,meteohub,2013-05-03 03:32:00,
2013-05-02 20:37:00,65.1,42.6,30.08,WSW,246,2.0,8.0,44,0.00,,,0.00,meteohub,2013-05-03 03:37:00,
2013-05-02 20:42:00,64.9,42.4,30.08,SW,233,2.0,8.0,44,0.00,,,0.00,meteohub,2013-05-03 03:42:00,
2013-05-02 20:47:00,64.9,43.2,30.08,West,263,1.0,7.0,45,0.00,,,0.00,meteohub,2013-05-03 03:47:00,
2013-05-02 20:52:00,64.8,43.0,30.08,WSW,248,3.0,7.0,45,0.00,,,0.00,meteohub,2013-05-03 03:52:00,
2013-05-02 20:57:00,64.8,42.3,30.08,WSW,244,2.0,7.0,44,0.00,,,0.00,meteohub,2013-05-03 03:57:00,
2013-05-02 21:01:00,64.8,42.3,30.08,WSW,251,2.0,7.0,44,0.00,,,0.00,meteohub,2013-05-03 04:01:00,
2013-05-02 21:02:00,64.8,43.0,30.08,West,263,6.0,7.0,45,0.00,,,0.00,meteohub,2013-05-03 04:02:00,
2013-05-02 21:04:00,64.8,43.0,30.08,WSW,237,4.0,7.0,45,0.00,,,0.00,meteohub,2013-05-03 04:04:00,
2013-05-02 21:05:00,64.6,42.8,30.08,WSW,254,5.0,7.0,45,0.00,,,0.00,meteohub,2013-05-03 04:05:00,
2013-05-02 21:10:00,64.6,43.3,30.08,WSW,243,2.0,7.0,46,0.00,,,0.00,meteohub,2013-05-03 04:10:00,
2013-05-02 21:15:00,64.2,43.0,30.08,WSW,239,2.0,7.0,46,0.00,,,0.00,meteohub,2013-05-03 04:15:00,
2013-05-02 21:20:00,64.0,43.3,30.08,WSW,239,1.0,7.0,47,0.00,,,0.00,meteohub,2013-05-03 04:20:00,
2013-05-02 21:25:00,63.9,43.2,30.08,WSW,239,2.0,4.0,47,0.00,,,0.00,meteohub,2013-05-03 04:25:00,
2013-05-02 21:30:00,63.9,43.2,30.08,WSW,239,1.0,4.0,47,0.00,,,0.00,meteohub,2013-05-03 04:30:00,
2013-05-02 21:35:00,63.9,43.2,30.08,WSW,237,0.0,3.0,47,0.00,,,0.00,meteohub,2013-05-03 04:35:00,
2013-05-02 21:40:00,63.9,42.6,30.08,WSW,238,0.0,3.0,46,0.00,,,0.00,meteohub,2013-05-03 04:40:00,
2013-05-02 21:45:00,64.0,42.8,30.08,WSW,239,0.0,3.0,46,0.00,,,0.00,meteohub,2013-05-03 04:45:00,
2013-05-02 21:50:00,64.0,42.3,30.08,WSW,238,0.0,1.0,45,0.00,,,0.00,meteohub,2013-05-03 04:50:00,
2013-05-02 21:55:00,64.2,42.4,30.08,WSW,240,1.0,2.0,45,0.00,,,0.00,meteohub,2013-05-03 04:55:00,
2013-05-02 22:00:00,64.2,42.4,30.08,WSW,239,1.0,2.0,45,0.00,,,0.00,meteohub,2013-05-03 05:00:00,
2013-05-02 22:05:00,64.2,42.4,30.08,WSW,238,0.0,2.0,45,0.00,,,0.00,meteohub,2013-05-03 05:05:00,
2013-05-02 22:10:00,64.0,42.3,30.08,WSW,239,1.0,3.0,45,0.00,,,0.00,meteohub,2013-05-03 05:10:00,
2013-05-02 22:15:00,64.0,42.3,30.08,WSW,239,2.0,3.0,45,0.00,,,0.00,meteohub,2013-05-03 05:15:00,
2013-05-02 22:20:00,63.9,42.1,30.08,WSW,239,2.0,3.0,45,0.00,,,0.00,meteohub,2013-05-03 05:20:00,
2013-05-02 22:25:00,63.9,41.5,30.08,WSW,239,2.0,4.0,44,0.00,,,0.00,meteohub,2013-05-03 05:25:00,
2013-05-02 22:30:00,63.7,41.4,30.08,WSW,239,5.0,5.0,44,0.00,,,0.00,meteohub,2013-05-03 05:30:00,
2013-05-02 22:35:00,63.7,41.4,30.08,WSW,239,1.0,5.0,44,0.00,,,0.00,meteohub,2013-05-03 05:35:00,
2013-05-02 22:40:00,63.7,40.8,30.08,WSW,239,2.0,5.0,43,0.00,,,0.00,meteohub,2013-05-03 05:40:00,
2013-05-02 22:45:00,63.5,40.6,30.08,WSW,239,3.0,5.0,43,0.00,,,0.00,meteohub,2013-05-03 05:45:00,
2013-05-02 22:50:00,63.5,39.9,30.08,WSW,240,4.0,5.0,42,0.00,,,0.00,meteohub,2013-05-03 05:50:00,
2013-05-02 22:55:00,63.5,39.9,30.08,WSW,245,1.0,7.0,42,0.00,,,0.00,meteohub,2013-05-03 05:55:00,
2013-05-02 23:00:00,63.5,39.9,30.08,WSW,246,1.0,7.0,42,0.00,,,0.00,meteohub,2013-05-03 06:00:00,
2013-05-02 23:05:00,63.3,40.5,30.08,WSW,246,0.0,5.0,43,0.00,,,0.00,meteohub,2013-05-03 06:05:00,
2013-05-02 23:11:00,63.3,40.5,30.08,WSW,246,0.0,3.0,43,0.00,,,0.00,meteohub,2013-05-03 06:11:00,
2013-05-02 23:16:00,63.1,40.3,30.08,WSW,246,0.0,3.0,43,0.00,,,0.00,meteohub,2013-05-03 06:16:00,
2013-05-02 23:21:00,63.0,40.1,30.08,WSW,245,2.0,4.0,43,0.00,,,0.00,meteohub,2013-05-03 06:21:00,
2013-05-02 23:26:00,63.0,40.1,30.08,WSW,246,1.0,4.0,43,0.00,,,0.00,meteohub,2013-05-03 06:26:00,
2013-05-02 23:31:00,63.0,40.1,30.08,WSW,245,1.0,4.0,43,0.00,,,0.00,meteohub,2013-05-03 06:31:00,
2013-05-02 23:36:00,62.8,39.9,30.08,WSW,239,3.0,5.0,43,0.00,,,0.00,meteohub,2013-05-03 06:36:00,
2013-05-02 23:41:00,62.6,39.7,30.08,WSW,238,0.0,5.0,43,0.00,,,0.00,meteohub,2013-05-03 06:41:00,
2013-05-02 23:46:00,62.4,40.3,30.08,WSW,250,1.0,5.0,44,0.00,,,0.00,meteohub,2013-05-03 06:46:00,
2013-05-02 23:51:00,62.2,40.1,30.08,WSW,245,3.0,5.0,44,0.00,,,0.00,meteohub,2013-05-03 06:51:00,
2013-05-02 23:56:00,62.1,41.0,30.08,SW,234,2.0,5.0,46,0.00,,,0.00,meteohub,2013-05-03 06:56:00,